Weather History for KLVM - February, 2013

Change the Weather History Date:

Friday, February 15, 2013

  Actual Average Record
Temperature  
Mean Temperature 38 °F 29 °F  
Max Temperature 46 °F 40 °F 58 °F (1951)
Min Temperature 30 °F 18 °F -16 °F (1956)
Degree Days  
Heating Degree Days 27 36  
Month to date heating degree days 553  
Since 1 July heating degree days 4894  
Cooling Degree Days 0 0  
Month to date cooling degree days 0  
Year to date cooling degree days 0  
Moisture  
Dew Point 20 °F    
Average Humidity 52    
Maximum Humidity 67    
Minimum Humidity 35    
Precipitation  
Precipitation 0.00 in 0.02 in 0.27 in (2015)
Month to date precipitation 0.25  
Year to date precipitation 0.74  
Sea Level Pressure  
Sea Level Pressure 30.34 in    
Wind  
Wind Speed 20 mph (WSW)    
Max Wind Speed 37 mph    
Max Gust Speed 53 mph    
Visibility 10 miles    
Events      
T = Trace of Precipitation, MM = Missing Value Source: NWS Daily Summary

Daily Weather History Graph

Daily Weather History Graph

Search for Another Location

Airport or City:

Trip Planner

Search our weather history database for the weather conditions in past years. The results will help you decide how hot, cold, wet, or windy it might be!

Date:

Astronomy

Feb. 15, 2013 Rise Set
Actual Time 7:23 AM MST 5:49 PM MST
Civil Twilight 6:52 AM MST 6:19 PM MST
Nautical Twilight 6:18 AM MST 6:54 PM MST
Astronomical Twilight 5:43 AM MST 7:28 PM MST
Moon 9:41 AM MST (2/15) No Moon Set
Length of Visible Light 11h 26m
Length of Day
10h 25m
Waxing Crescent, 31% of the Moon is Illuminated
Feb 15
Waxing Crescent
Feb 17
First Quarter
Feb 25
Full
Mar 4
Last Quarter
Mar 11
New

Hourly Weather History & Observations

Time (MST) Temp. Windchill Dew Point Humidity Pressure Visibility Wind Dir Wind Speed Gust Speed Precip Events Conditions
12:53 AM 30.9 °F 18.7 °F 19.9 °F 64% 30.39 in 10.0 mi WSW 19.6 mph - N/A   Mostly Cloudy
1:53 AM 30.9 °F 18.7 °F 21.0 °F 67% 30.39 in 10.0 mi WSW 19.6 mph - N/A   Overcast
2:53 AM 30.9 °F 19.4 °F 21.0 °F 67% 30.39 in 10.0 mi WSW 17.3 mph - N/A   Overcast
3:53 AM 30.9 °F 19.4 °F 19.0 °F 61% 30.39 in 10.0 mi WSW 17.3 mph - N/A   Overcast
4:53 AM 30.9 °F 20.2 °F 19.0 °F 61% 30.40 in 10.0 mi WSW 15.0 mph - N/A   Overcast
5:53 AM 30.0 °F 18.7 °F 19.9 °F 66% 30.43 in 10.0 mi WSW 16.1 mph - N/A   Overcast
6:53 AM 30.9 °F 20.7 °F 19.9 °F 64% 30.44 in 10.0 mi WSW 13.8 mph - N/A   Overcast
7:53 AM 30.0 °F 18.3 °F 19.9 °F 66% 30.45 in 10.0 mi West 17.3 mph - N/A   Partly Cloudy
8:53 AM 30.9 °F 19.8 °F 19.0 °F 61% 30.44 in 10.0 mi West 16.1 mph - N/A   Clear
9:53 AM 36.0 °F 25.6 °F 19.9 °F 52% 30.43 in 10.0 mi WSW 18.4 mph 28.8 mph N/A   Clear
10:53 AM 37.0 °F 25.6 °F 21.0 °F 52% 30.39 in 10.0 mi West 24.2 mph 28.8 mph N/A   Clear
11:53 AM 37.9 °F 26.6 °F 21.0 °F 51% 30.37 in 10.0 mi West 25.3 mph 31.1 mph N/A   Clear
12:53 PM 39.9 °F 29.2 °F 21.9 °F 49% 30.34 in 10.0 mi WSW 25.3 mph 31.1 mph N/A   Clear
1:53 PM 43.0 °F 33.1 °F 21.0 °F 42% 30.32 in 10.0 mi West 26.5 mph 32.2 mph N/A   Clear
2:53 PM 45.0 °F 37.1 °F 19.9 °F 37% 30.30 in 10.0 mi West 19.6 mph 28.8 mph N/A   Clear
3:53 PM 46.0 °F 38.5 °F 19.9 °F 35% 30.28 in 10.0 mi West 19.6 mph 31.1 mph N/A   Clear
4:53 PM 44.1 °F 36.2 °F 19.0 °F 37% 30.28 in 10.0 mi West 18.4 mph - N/A   Clear
5:53 PM 39.9 °F 30.8 °F 19.9 °F 45% 30.29 in 10.0 mi West 18.4 mph - N/A   Clear
6:53 PM 41.0 °F 31.6 °F 19.9 °F 43% 30.27 in 10.0 mi WSW 20.7 mph 29.9 mph N/A   Clear
7:53 PM 39.0 °F 27.6 °F 19.9 °F 46% 30.27 in 10.0 mi SW 27.6 mph 38.0 mph N/A   Clear
8:53 PM 37.9 °F 26.1 °F 19.9 °F 48% 30.28 in 10.0 mi West 27.6 mph 35.7 mph N/A   Clear
9:53 PM 37.9 °F 25.1 °F 19.0 °F 47% 30.26 in 10.0 mi WSW 33.4 mph 49.5 mph N/A   Clear
10:53 PM 37.0 °F 23.3 °F 19.0 °F 48% 30.25 in 10.0 mi WSW 36.8 mph 52.9 mph N/A   Clear
11:53 PM 36.0 °F 23.0 °F 19.0 °F 50% 30.22 in 10.0 mi West 29.9 mph 40.3 mph N/A   Clear